Home   Weather   Saint Helier   Past weeks
Flag for Jersey

Past Weather in Saint Helier, Jersey — Yesterday and Last 2 Weeks

Now
59 °F

Light rain. Fog.


Feels Like: 60 °F
Forecast: 60 / 55 °F
Wind: 3 mph from Southwest

Location: Jersey Airport

Current Time: Oct 14, 2019 at 3:06:08 pm

Latest Report: Oct 14, 2019 at 2:20 pm


Visibility: N/A

Pressure: 29.56 "Hg

Humidity: 100%

Dew Point: 59 °F

Location of Saint HelierLocation

Past Weather in Saint Helier — Graph

°F

Saint Helier Temperature Yesterday

Maximum temperature yesterday: 63 °F (at 8:50 am)
Minimum temperature yesterday: 54 °F (at 10:50 pm)
Average temperature yesterday: 59 °F

High & Low Weather Summary for the Past Weeks

 TemperatureHumidityPressure
High64 °F (Sep 30, 3:20 pm)100% (Sep 30, 9:20 pm)30.21 "Hg (Sep 30, 9:20 pm)
Low45 °F (Oct 3, 1:50 am)59% (Oct 2, 1:50 pm)29.56 "Hg (Sep 29, 1:20 pm)
Average58 °F86%29.87 "Hg
* Reported Sep 29 1:20 pm — Oct 14 1:50 pm, Saint Helier. Weather by CustomWeather, © 2019

Note: Actual official high and low records may vary slightly from our data, if they occured in-between our weather recording intervals... More about our weather records

Advertising

Saint Helier Weather History for the Previous 24 Hours

Scroll right to see more
 ConditionsComfort  
Time TempWeatherWind HumidityBarometerVisibility
1:50 pm
Mon, Oct 14
59 °FFog.6 mph100%29.56 "Hg6 mi
1:20 pm59 °FFog.3 mph100%29.56 "Hg6 mi
12:50 pm59 °FLight rain. Fog.5 mph100%29.59 "HgN/A
12:20 pm59 °FFog.2 mph94%29.59 "HgN/A
11:50 am59 °FLight rain. Broken clouds.1 mph94%29.59 "Hg5 mi
11:20 am57 °FHeavy rain. Fog.3 mph100%29.62 "Hg1 mi
10:50 am57 °FRain. Broken clouds.10 mph100%29.62 "Hg4 mi
10:20 am57 °FLight rain. Broken clouds.14 mph94%29.62 "HgN/A
9:50 am55 °FPartly sunny.13 mph100%29.65 "HgN/A
9:20 am55 °FRain. Partly sunny.13 mph100%29.65 "HgN/A
8:50 am55 °FLight rain. Partly sunny.12 mph94%29.65 "HgN/A
8:20 am55 °FRain. Passing clouds.14 mph94%29.68 "HgN/A
7:50 am55 °FLight rain. Passing clouds.10 mph94%29.68 "HgN/A
7:20 am54 °FLight rain. Passing clouds.10 mph100%29.68 "HgN/A
6:50 am54 °FScattered showers. Passing clouds.10 mph100%29.71 "HgN/A
6:20 am55 °FPassing clouds.7 mph94%29.71 "HgN/A
5:50 am54 °FLight rain. Passing clouds.6 mph94%29.74 "HgN/A
5:20 am55 °FCool.5 mph94%29.74 "HgN/A
4:50 am54 °FRain. Passing clouds.5 mph94%29.74 "HgN/A
4:20 am55 °FLight rain. Passing clouds.6 mph94%29.77 "HgN/A
3:50 am55 °FRain. Partly cloudy.10 mph94%29.77 "Hg6 mi
3:20 am55 °FPartly cloudy.12 mph94%29.80 "HgN/A
2:50 am55 °FRain. Partly cloudy.9 mph94%29.80 "Hg4 mi
2:20 am57 °FRain. Passing clouds.10 mph88%29.80 "HgN/A
1:50 am57 °FLight rain. Passing clouds.12 mph88%29.80 "HgN/A
1:20 am57 °FLight rain. Partly cloudy.8 mph88%29.80 "HgN/A
12:50 am57 °FPartly cloudy.8 mph88%29.83 "HgN/A
12:20 am57 °FCool.9 mph88%29.83 "HgN/A
11:50 pm
Sun, Oct 13
55 °FOvercast.8 mph88%29.83 "HgN/A
11:20 pm54 °FPassing clouds.8 mph88%29.83 "HgN/A
10:50 pm54 °FCool.7 mph88%29.86 "HgN/A
10:20 pm55 °FCool.5 mph82%29.86 "HgN/A
9:20 pm55 °FPassing clouds.1 mph82%29.86 "HgN/A
8:50 pm55 °FPassing clouds.2 mph82%29.86 "HgN/A
8:20 pm55 °FPassing clouds.5 mph82%29.86 "HgN/A
7:50 pm55 °FPassing clouds.6 mph82%29.83 "HgN/A
7:20 pm55 °FPassing clouds.6 mph82%29.83 "HgN/A
6:50 pm55 °FPassing clouds.7 mph88%29.83 "HgN/A
6:20 pm57 °FPassing clouds.10 mph82%29.83 "HgN/A
5:50 pm57 °FPassing clouds.10 mph82%29.80 "HgN/A
5:20 pm59 °FPassing clouds.13 mph77%29.80 "HgN/A
4:50 pm59 °FPassing clouds.13 mph82%29.80 "HgN/A
4:20 pm59 °FPassing clouds.15 mph82%29.77 "HgN/A
3:50 pm59 °FPassing clouds.18 mph88%29.77 "HgN/A
3:20 pm59 °FScattered showers. Scattered clouds.20 mph88%29.74 "HgN/A
Weather by CustomWeather, © 2019

See weather overview